• Join FlightAware (Why Join?)
  • Login
  • US Flag 
07:47PM EDT


 

Airport Tracker/Info


-or-


 

Live Flight TrackerFlight Track Log ✈ CPT7563 ✈ 18-Jul-2013 ✈ KMOT - KGFK

Flight Track Log - Related Links

Times and Time Zones

All times are in EDT time to prevent confusion due to time zone crossing. See the CPT7563 flight status page for this flight to view local times or setup timezone preferences in your user account.

Time Position Orientation Groundspeed Altitude Reporting Facility
EDT Latitude Longitude Course Direction KTS MPH feet Rate Location/Type
07:57PM 48.2344 -100.8333 95° East 161 185 8,000  Level Minneapolis Center
07:58PM 48.2308 -100.7708 95° East 158 182 8,000 900 Level Minneapolis Center
07:59PM 48.2242 -100.6950 97° East 157 181 9,900 1,140 Climbing Minneapolis Center
08:00PM 48.2225 -100.6250 92° East 165 190 10,400 420 Climbing Minneapolis Center
08:01PM 48.2217 -100.5528 91° East 170 196 10,800 240 Climbing Minneapolis Center
08:02PM 48.2169 -100.4797 96° East 173 199 11,000 60 Climbing Minneapolis Center
08:03PM 48.2106 -100.3992 97° East 183 211 11,000  Level Minneapolis Center
08:04PM 48.2067 -100.3169 94° East 191 220 11,000  Level Minneapolis Center
08:05PM 48.2025 -100.2214 94° East 193 222 11,000  Level Minneapolis Center
08:06PM 48.1981 -100.1408 95° East 193 222 11,000  Level Minneapolis Center
08:07PM 48.1922 -100.0594 96° East 195 224 11,000  Level Minneapolis Center
08:08PM 48.1864 -99.9778 96° East 196 226 11,000  Level Minneapolis Center
08:09PM 48.1817 -99.8983 95° East 195 224 11,000  Level Minneapolis Center
08:10PM 48.1764 -99.8169 96° East 195 224 11,000  Level Minneapolis Center
08:11PM 48.1719 -99.7194 94° East 196 226 11,000  Level Minneapolis Center
08:12PM 48.1656 -99.6389 97° East 196 226 11,100  Climbing Minneapolis Center
08:13PM 48.1608 -99.5589 95° East 195 224 11,100  Level Minneapolis Center
08:14PM 48.1547 -99.4789 97° East 194 223 11,100  Level Minneapolis Center
08:15PM 48.1494 -99.3967 95° East 196 226 11,100  Level Minneapolis Center
08:16PM 48.1422 -99.2983 96° East 198 228 11,100  Level Minneapolis Center
08:17PM 48.1369 -99.2181 96° East 197 227 11,100  Level Minneapolis Center
08:18PM 48.1308 -99.1378 96° East 195 224 11,100 -120 Level Minneapolis Center
08:19PM 48.1261 -99.0564 95° East 195 224 10,900 -120 Descending Minneapolis Center
08:21PM 48.1197 -98.9756 97° East 196 226 10,900  Level Minneapolis Center
08:22PM 48.1147 -98.8958 95° East 195 224 10,900  Level Minneapolis Center
08:23PM 48.1061 -98.8008 98° East 194 223 10,900  Level Minneapolis Center
08:24PM 48.0981 -98.7203 98° East 194 223 10,900  Level Minneapolis Center
08:25PM 48.0911 -98.6403 97° East 195 224 10,900  Level Minneapolis Center
08:26PM 48.0839 -98.5614 98° East 194 223 10,900  Level Minneapolis Center
08:27PM 48.0753 -98.4819 99° East 193 222 10,900  Level Minneapolis Center
08:28PM 48.0675 -98.4036 98° East 192 221 10,900  Level Minneapolis Center
08:29PM 48.0581 -98.3100 99° East 191 220 10,900 120 Level Minneapolis Center
08:29PM 48.0567 -98.2697 93° East 191 220 11,100 120 Climbing Minneapolis Center
08:30PM 48.0472 -98.1867 100° East 193 222 11,100 -180 Level Minneapolis Center
08:31PM 48.0442 -98.1525 98° East 191 220 10,900 -180 Descending Minneapolis Center
08:32PM 48.0358 -98.0728 99° East 192 221 10,900 120 Level Minneapolis Center
08:32PM 48.0322 -98.0206 96° East 192 221 11,100 -180 Climbing Minneapolis Center
08:34PM 48.0164 -97.9356 106° East 196 226 10,600 -660 Descending Minneapolis Center
08:35PM 47.9983 -97.8539 108° East 200 230 9,800 -780 Descending Minneapolis Center
08:35PM 47.9836 -97.7906 109° East 201 231 9,200 -780 Descending Minneapolis Center
08:36PM 47.9725 -97.7433 109° East 199 229 8,700 -660 Descending Minneapolis Center
08:37PM 47.9600 -97.6883 109° East 201 231 8,400 -720 Descending Minneapolis Center
08:38PM 47.9444 -97.6158 108° East 204 235 7,600 -960 Descending Minneapolis Center
08:39PM 47.9242 -97.5317 110° East 209 241 6,600 -1,020 Descending Minneapolis Center
08:39PM 47.9172 -97.5014 109° East 206 237 6,100 -1,080 Descending Minneapolis Center
08:40PM 47.8983 -97.4197 109° East 207 238 5,000 -1,140 Descending Minneapolis Center
08:41PM 47.8806 -97.3392 108° East 207 238 3,800 -1,260 Descending Minneapolis Center
08:42PM 47.8608 -97.2456 107° East 202 232 2,500 -960 Descending Minneapolis Center
08:43PM 47.8883 -97.1931 52° Northeast 175 201 1,900 -540 Descending Minneapolis Center
08:44PM 47.9158 -97.1797 18° North 132 152 1,400 -540 Descending Minneapolis Center
08:45PM 47.9453 -97.1853 353° North 114 131 900 -540 Descending Minneapolis Center